Regional Weather Roundup
Issued by NWS

Home | Current Version | Previous Version | Text Only | Print | Product List | Glossary On
Versions: 1 2 3 4 5 6 7 8 9 10 11 12 13 14 15 16 17 18 19 20 21 22 23 24 25 26 27 28 29 30 31 32 33 34 35 36 37 38 39 40 41 42 43 44 45 46 47 48 49 50
550
ASUS43 KLMK 292110
RWRKY
KENTUCKY REGIONAL WEATHER ROUNDUP
NATIONAL WEATHER SERVICE LOUISVILLE KY
500 PM EDT WED MAR 29 2017

NOTE "FAIR" INDICATES FEW OR NO CLOUDS BELOW 12,000 FEET
WITH NO SIGNIFICANT WEATHER AND/OR OBSTRUCTIONS TO VISIBILITY.

KYZ001>023-026-027-061>063-070>075-292200-
WESTERN AND SOUTH CENTRAL KENTUCKY

CITY           SKY/WX    TMP DP  RH WIND       PRES   REMARKS
PADUCAH        MOSUNNY   75  58  55 SE14      29.85F
HENDERSON      MOSUNNY   70  52  52 E12G18    29.91F
OWENSBORO      SUNNY     72  54  53 E17       29.95F
HOPKINSVILLE   SUNNY     77  56  49 E12       29.90F
BOWLING GREEN  SUNNY     76  56  49 E9        29.97F
GLASGOW        SUNNY     74  55  50 E9        29.99F
$$

KYZ024-025-028>034-038-045-046-053-292200-
NORTH CENTRAL KENTUCKY

CITY           SKY/WX    TMP DP  RH WIND       PRES   REMARKS
LOUISVILLE/SDF PTSUNNY   67  48  50 E8        30.04F
LOUISVILLE/LOU SUNNY     66  50  56 E8        30.05F
FORT KNOX      SUNNY     66  51  59 E8        30.01F
$$

KYZ035>037-039>044-047>052-055>060-089>105-292200-
NORTHEAST KENTUCKY

CITY           SKY/WX    TMP DP  RH WIND       PRES   REMARKS
LEXINGTON      MOSUNNY   64  48  56 NE9       30.09R
COVINGTON      MOSUNNY   57  45  64 E14G22    30.11S
FRANKFORT      MOSUNNY   64  48  56 E7        30.08R
$$

KYZ054-064>069-076>088-106>120-292200-
SOUTHEAST KENTUCKY

CITY           SKY/WX    TMP DP  RH WIND       PRES   REMARKS
JACKSON        SUNNY     66  48  52 CALM      30.08F
LONDON         SUNNY     71  50  47 MISG      30.05F
SOMERSET       SUNNY     70  52  52 N6        30.05S
MIDDLESBORO    MOSUNNY   77  51  39 CALM      30.02F
MONTICELLO     CLEAR     73  54  51 VRB5      30.05S
$$





USA.gov is the U.S. government's official web portal to all federal, state and local government web resources and services.